This demonstration page uses our WeatherBlox Daily Observations layout. Learn more.

36.17497, -115.13722

Hourly Observations for January 18, 2020

Temp ( °F °C ) Dew Point ( °F °C ) Humidity (%) Winds ( mph kmh ) Pressure ( in mb ) Visibility ( mi km ) Precip ( " mm )
12:53 am 00:53 Clear 41 5 18 -7.8 39 39 W 5 7 30.39 1029 10 16.0934 0 0
1:53 am 01:53 Clear 40 4.4 17 -8.3 40 40 W 3 6 30.38 1029 10 16.0934 0 0
2:53 am 02:53 Clear 38 3.3 18 -7.8 44 44 NW 8 13 30.38 1029 10 16.0934 0 0
3:53 am 03:53 Clear 39 3.9 17 -8.3 41 41 Calm 30.39 1029 10 16.0934 0 0
4:53 am 04:53 Clear 38 3.3 14 -10 37 37 WNW 6 9 30.39 1029 10 16.0934 0 0
5:53 am 05:53 Clear 38 3.3 15 -9.4 39 39 WNW 6 9 30.42 1030 10 16.0934 0 0
6:53 am 06:53 Sunny 36 2.2 16 -8.9 44 44 NW 8 13 30.44 1031 10 16.0934 0 0
7:53 am 07:53 Sunny 44 6.7 15 -9.4 31 31 NNW 5 7 30.44 1031 10 16.0934 0 0
8:53 am 08:53 Sunny 48 8.9 15 -9.4 27 27 NW 7 11 30.45 1031 10 16.0934 0 0
9:53 am 09:53 Sunny 52 11.1 14 -10 22 22 NNW 10 17 30.46 1031 10 16.0934 0 0
10:53 am 10:53 Sunny 53 11.7 16 -8.9 23 23 E 8 13 30.45 1031 10 16.0934 0 0
11:53 am 11:53 Sunny 55 12.8 15 -9.4 20 20 NE 3 6 30.41 1030 10 16.0934 0 0
12:53 pm 12:53 Sunny 55 12.8 13 -10.6 19 19 SSE 3 6 30.39 1029 10 16.0934 0 0
1:53 pm 13:53 Sunny 57 13.9 13 -10.6 17 17 Calm 30.37 1029 10 16.0934 0 0
2:53 pm 14:53 Sunny 58 14.4 14 -10 18 18 Calm 30.37 1028 10 16.0934 0 0
3:53 pm 15:53 Sunny 57 13.9 14 -10 18 18 SE 5 7 30.36 1028 10 16.0934 0 0
4:53 pm 16:53 Clear 56 13.3 14 -10 19 19 Calm 30.37 1029 10 16.0934 0 0
5:53 pm 17:53 Clear 53 11.7 14 -10 21 21 Calm 30.37 1029 10 16.0934 0 0
6:53 pm 18:53 Clear 50 10 18 -7.8 28 28 WNW 7 11 30.4 1029 10 16.0934 0 0
7:53 pm 19:53 Clear 47 8.3 19 -7.2 33 33 NW 3 6 30.39 1029 10 16.0934 0 0
8:53 pm 20:53 Clear 46 7.8 18 -7.8 32 32 W 5 7 30.39 1029 10 16.0934 0 0
9:53 pm 21:53 Clear 44 6.7 20 -6.7 38 38 WNW 5 7 30.39 1029 10 16.0934 0 0
10:53 pm 22:53 Clear 44 6.7 19 -7.2 37 37 WNW 6 9 30.39 1029 10 16.0934 0 0
11:53 pm 23:53 Clear 42 5.6 20 -6.7 41 41 WNW 7 11 30.39 1029 10 16.0934 0 0

Powered by AerisWeather